This is the latest recevied weather packets stored in our database for station/object KI5QCM-13. If no packets are shown the sender has not sent any weather packets the latest 10 day(s).
| Time | Temp. | Humidity | Pressure | Rain* | Wind** | Luminosity | Snow |
|---|---|---|---|---|---|---|---|
| 1788309654 | 33.89° C | 45% | 1012.7 hPa | 0 mm | - | 9 W/m² | - |
| 1788309062 | 34.44° C | 43% | 1012.7 hPa | 0 mm | - | 16 W/m² | - |
| 1788308470 | 35.56° C | 42% | 1013 hPa | 0 mm | - | 25 W/m² | - |
| 1788307830 | 35.56° C | 40% | 1012.9 hPa | 0 mm | - | 35 W/m² | - |
| 1788307254 | 36.11° C | 40% | 1013 hPa | 0 mm | - | 43 W/m² | - |
| 1788306679 | 36.67° C | 39% | 1013.1 hPa | 0 mm | - | 52 W/m² | - |
| 1788306027 | 36.67° C | 39% | 1013.2 hPa | 0 mm | - | 70 W/m² | - |
| 1788305430 | 37.22° C | 37% | 1013.2 hPa | 0 mm | - | 95 W/m² | - |
| 1788304854 | 37.22° C | 37% | 1013.3 hPa | 0 mm | - | 127 W/m² | - |
| 1788304278 | 37.78° C | 38% | 1013.3 hPa | 0 mm | - | 160 W/m² | - |
| 1788303639 | 37.78° C | 37% | 1013.3 hPa | 0 mm | - | 182 W/m² | - |
| 1788303062 | 37.78° C | 38% | 1013.1 hPa | 0 mm | - | 203 W/m² | - |
| 1788302470 | 38.33° C | 37% | 1013.3 hPa | 0 mm | - | 235 W/m² | - |
| 1788301831 | 38.33° C | 37% | 1013.2 hPa | 0 mm | - | 271 W/m² | - |
| 1788301238 | 38.33° C | 36% | 1013.2 hPa | 0 mm | - | 313 W/m² | - |
| 1788300662 | 37.78° C | 37% | 1013.4 hPa | 0 mm | - | 346 W/m² | - |
| 1788300023 | 37.22° C | 38% | 1013.4 hPa | 0 mm | - | 175 W/m² | - |
| 1788299430 | 38.33° C | 36% | 1013.5 hPa | 0 mm | - | 336 W/m² | - |
| 1788298855 | 38.33° C | 36% | 1013.5 hPa | 0 mm | - | 440 W/m² | - |
| 1788298263 | 38.33° C | 37% | 1013.7 hPa | 0 mm | - | 438 W/m² | - |
| 1788297622 | 38.89° C | 35% | 1013.7 hPa | 0 mm | - | 253 W/m² | - |
| 1788297079 | 38.89° C | 35% | 1013.8 hPa | 0 mm | - | 523 W/m² | - |
| 1788296439 | 37.22° C | 37% | 1013.8 hPa | 0 mm | - | 489 W/m² | - |
| 1788295863 | 37.78° C | 37% | 1014 hPa | 0 mm | - | 139 W/m² | - |
| 1788295222 | 38.89° C | 36% | 1014 hPa | 0 mm | - | 585 W/m² | - |
* Rain latest hour (hover to see other rain measurements)
** Current wind speed in m/s (hover to see current wind gust speed)